Voltar ao catálogo

STARLINK-31716

AtivoComunicaçõesVLEO
NORAD 59377·PAYLOAD·🇺🇸 United States

Lançado Apr 2, 2024 de Vandenberg Space Force Base

Loading…

Próximas Passagens (próximas 24 horas)

TLE

AtualizadoSource: CelesTrak SupGP

Época: Sep 14, 2026, 22:41 UTC

1 59377C 24062D   26257.94562500  .00025716  00000+0  75977-3 0  2573
2 59377  53.1601  47.4735 0001338  80.4835 111.5593 15.34377847    17

Acompanhe STARLINK-31716 em tempo real com AllMySat

Download on the App Store